GW2167 Weather Reports


time (UTC)temp
F
wind
direction
speed
knots
gust
knots
rain 1hr
in
rain 24hr
in
rain mn
in
humidity
%
barometer
mb
20260505093203 74 169 1.7 7.0 0.00 0.00 0.00 53 1005.0
20260505093103 74 188 1.7 6.1 0.00 0.00 0.00 51 1005.1
20260505093003 74 227 0.9 5.2 0.00 0.00 0.00 49 1005.1
20260505092916 74 246 0.9 5.2 0.00 0.00 0.00 54 1005.1
20260505092903 74 244 0.9 5.2 0.00 0.00 0.00 54 1005.1
20260505092803 74 242 1.7 5.2 0.00 0.00 0.00 52 1005.0
20260505092603 74 247 1.7 5.2 0.00 0.00 0.00 50 1005.0
20260505092503 74 255 1.7 5.2 0.00 0.00 0.00 51 1005.1
20260505092403 74 265 2.6 5.2 0.00 0.00 0.00 54 1005.3
20260505092305 74 269 2.6 5.2 0.00 0.00 0.00 52 1005.3
20260505092203 73 268 2.6 5.2 0.00 0.00 0.00 51 1005.1
20260505092117 73 266 2.6 5.2 0.00 0.00 0.00 56 1005.1
20260505092103 73 265 2.6 5.2 0.00 0.00 0.00 56 1005.1
20260505092003 73 267 2.6 5.2 0.00 0.00 0.00 53 1005.1
20260505091918 73 268 2.6 5.2 0.00 0.00 0.00 53 1005.3
20260505091803 74 277 2.6 5.2 0.00 0.00 0.00 50 1005.0
20260505091603 73 273 2.6 4.3 0.00 0.00 0.00 57 1005.4
20260505091503 73 262 2.6 4.3 0.00 0.00 0.00 57 1005.4
20260505091403 73 236 1.7 4.3 0.00 0.00 0.00 58 1004.9
20260505091303 73 204 1.7 4.3 0.00 0.00 0.00 54 1005.3
20260505091216 73 181 1.7 4.3 0.00 0.00 0.00 53 1005.3
20260505091203 73 175 1.7 4.3 0.00 0.00 0.00 53 1005.3
20260505091103 72 157 1.7 4.3 0.00 0.00 0.00 52 1005.4
20260505090903 73 147 1.7 5.2 0.00 0.00 0.00 52 1005.4
20260505090803 73 137 1.7 5.2 0.00 0.00 0.00 51 1005.1
20260505090710 73 132 1.7 5.2 0.00 0.00 0.00 52 1005.1
20260505090603 73 128 2.6 5.2 0.00 0.00 0.00 52 1004.8
20260505090503 73 123 2.6 5.2 0.00 0.00 0.00 52 1005.1
20260505090403 73 114 1.7 5.2 0.00 0.00 0.00 51 1005.1
20260505090303 73 107 1.7 5.2 0.00 0.00 0.00 53 1005.1
20260505090203 73 98 1.7 5.2 0.00 0.00 0.00 54 1005.4
20260505090117 73 96 1.7 5.2 0.00 0.00 0.00 54 1005.4
20260505090003 73 84 1.7 5.2 0.00 0.00 0.00 54 1005.1
20260505085803 73 95 1.7 6.1 0.00 0.00 0.00 51 1005.3
20260505085703 73 104 1.7 6.1 0.00 0.00 0.00 53 1005.3
20260505085603 72 108 1.7 6.1 0.00 0.00 0.00 57 1005.3
20260505085503 72 114 1.7 6.1 0.00 0.00 0.00 55 1005.3
20260505085403 72 119 1.7 6.1 0.00 0.00 0.00 56 1005.3
20260505085304 72 121 1.7 6.1 0.00 0.00 0.00 53 1005.3
20260505085203 72 124 1.7 6.1 0.00 0.00 0.00 53 1005.4
20260505085103 72 121 1.7 6.1 0.00 0.00 0.00 57 1005.4
20260505085017 72 120 1.7 6.1 0.00 0.00 0.00 53 1005.4
20260505085003 72 119 1.7 6.1 0.00 0.00 0.00 53 1005.4
20260505084903 72 122 2.6 6.1 0.00 0.00 0.00 58 1005.5
20260505084703 72 114 1.7 5.2 0.00 0.00 0.00 57 1005.4
20260505084603 72 108 1.7 5.2 0.00 0.00 0.00 58 1005.4
20260505084503 72 103 1.7 5.2 0.00 0.00 0.00 56 1005.5
20260505084403 72 98 1.7 5.2 0.00 0.00 0.00 54 1005.5
20260505084303 72 97 1.7 5.2 0.00 0.00 0.00 54 1005.5
20260505084203 72 98 2.6 5.2 0.00 0.00 0.00 57 1005.5
20260505084103 72 99 2.6 5.2 0.00 0.00 0.00 56 1005.5
20260505084019 72 100 1.7 5.2 0.00 0.00 0.00 56 1005.3
20260505084003 72 100 1.7 5.2 0.00 0.00 0.00 56 1005.4
20260505083903 72 98 2.6 5.2 0.00 0.00 0.00 57 1005.5
20260505083703 71 99 1.7 5.2 0.00 0.00 0.00 55 1005.3
20260505083603 71 94 1.7 7.0 0.00 0.00 0.00 54 1005.3
20260505083516 71 101 1.7 7.0 0.00 0.00 0.00 55 1005.3
20260505083503 71 100 1.7 7.0 0.00 0.00 0.00 55 1005.5
20260505083403 71 104 1.7 7.0 0.00 0.00 0.00 57 1005.4
20260505083203 71 103 1.7 7.0 0.00 0.00 0.00 57 1005.3
20260505083103 71 101 1.7 7.0 0.00 0.00 0.00 56 1005.6
20260505083003 71 101 1.7 7.0 0.00 0.00 0.00 54 1005.6
20260505082904 72 108 2.6 7.0 0.00 0.00 0.00 54 1005.5
20260505082803 72 109 2.6 7.0 0.00 0.00 0.00 56 1005.5
20260505082703 72 110 2.6 7.0 0.00 0.00 0.00 56 1005.5
20260505082603 72 113 2.6 7.0 0.00 0.00 0.00 57 1005.4
20260505082503 72 107 2.6 7.0 0.00 0.00 0.00 58 1005.4
20260505082403 72 99 2.6 6.1 0.00 0.00 0.00 55 1005.5
20260505082304 71 98 2.6 6.1 0.00 0.00 0.00 57 1005.6
20260505082203 71 97 2.6 6.1 0.00 0.00 0.00 57 1005.6
20260505082116 70 91 2.6 6.1 0.00 0.00 0.00 57 1005.6
20260505082103 70 88 2.6 6.1 0.00 0.00 0.00 57 1005.5
20260505082003 70 86 2.6 6.1 0.00 0.00 0.00 57 1005.5
20260505081803 70 79 2.6 5.2 0.00 0.00 0.00 59 1005.7
20260505081703 70 76 2.6 5.2 0.00 0.00 0.00 56 1005.7
20260505081618 70 81 2.6 5.2 0.00 0.00 0.00 56 1005.7
20260505081603 70 82 2.6 6.1 0.00 0.00 0.00 56 1005.7
20260505081503 70 89 2.6 6.1 0.00 0.00 0.00 57 1005.9
20260505081308 70 110 2.6 8.7 0.00 0.00 0.00 58 1005.8
20260505081203 69 111 2.6 8.7 0.00 0.00 0.00 59 1005.5
20260505081119 69 111 2.6 8.7 0.00 0.00 0.00 58 1005.8
20260505081103 69 112 2.6 8.7 0.00 0.00 0.00 58 1005.6
20260505081017 70 110 2.6 8.7 0.00 0.00 0.00 58 1005.6
20260505081003 70 109 2.6 8.7 0.00 0.00 0.00 58 1005.6
20260505080916 70 105 3.5 8.7 0.00 0.00 0.00 60 1005.6
20260505080603 70 88 3.5 8.7 0.00 0.00 0.00 58 1006.0
20260505080503 70 82 4.3 8.7 0.00 0.00 0.00 58 1005.6
20260505080403 70 78 4.3 9.6 0.00 0.00 0.00 61 1005.6
20260505080303 69 73 4.3 9.6 0.00 0.00 0.00 59 1005.5
20260505080203 69 72 4.3 9.6 0.00 0.00 0.00 60 1005.5
20260505080103 69 71 4.3 9.6 0.00 0.00 0.00 59 1005.5
20260505080003 69 70 4.3 9.6 0.00 0.00 0.00 58 1005.6
20260505075903 69 68 4.3 9.6 0.00 0.00 0.00 59 1005.8
20260505075803 69 68 4.3 9.6 0.00 0.00 0.00 57 1005.5
20260505075703 70 67 3.5 9.6 0.00 0.00 0.00 57 1005.5
20260505075603 70 65 3.5 9.6 0.00 0.00 0.00 57 1005.5
20260505075516 70 67 3.5 9.6 0.00 0.00 0.00 56 1005.6
20260505075503 70 67 3.5 9.6 0.00 0.00 0.00 56 1005.7
20260505075403 70 68 3.5 9.6 0.00 0.00 0.00 57 1005.6
20260505075203 70 65 3.5 8.7 0.00 0.00 0.00 57 1005.5
20260505075118 70 68 3.5 7.8 0.00 0.00 0.00 59 1005.5
20260505075103 70 66 3.5 7.0 0.00 0.00 0.00 59 1005.6
20260505075003 70 66 3.5 7.0 0.00 0.00 0.00 58 1005.9
20260505074803 70 72 3.5 7.0 0.00 0.00 0.00 59 1005.7
20260505074703 69 76 3.5 7.0 0.00 0.00 0.00 60 1005.9
20260505074603 69 83 3.5 7.0 0.00 0.00 0.00 63 1005.7
20260505074518 69 86 3.5 7.0 0.00 0.00 0.00 60 1005.7
20260505074503 69 87 3.5 7.0 0.00 0.00 0.00 60 1005.7
20260505074403 69 89 3.5 7.0 0.00 0.00 0.00 61 1005.8
20260505074319 69 92 3.5 7.0 0.00 0.00 0.00 61 1005.8
20260505074203 68 100 2.6 7.0 0.00 0.00 0.00 61 1005.9
20260505074019 68 109 2.6 6.1 0.00 0.00 0.00 61 1005.6
20260505074003 68 108 2.6 6.1 0.00 0.00 0.00 61 1005.6
20260505073903 68 106 2.6 6.1 0.00 0.00 0.00 63 1005.8
20260505073704 67 103 2.6 6.1 0.00 0.00 0.00 60 1005.7
20260505073617 67 99 2.6 6.1 0.00 0.00 0.00 62 1005.7
20260505073603 67 97 2.6 6.1 0.00 0.00 0.00 62 1005.7
20260505073503 67 92 2.6 5.2 0.00 0.00 0.00 65 1005.7
20260505073317 67 82 2.6 5.2 0.00 0.00 0.00 63 1005.7
20260505073303 67 79 2.6 5.2 0.00 0.00 0.00 63 1005.9
20260505073203 67 73 2.6 5.2 0.00 0.00 0.00 61 1005.9
20260505073003 67 55 1.7 5.2 0.00 0.00 0.00 63 1005.7
20260505072903 67 52 1.7 5.2 0.00 0.00 0.00 62 1005.7
20260505072803 67 56 1.7 5.2 0.00 0.00 0.00 63 1005.6
20260505072703 67 58 1.7 5.2 0.00 0.00 0.00 62 1005.7
20260505072603 67 65 1.7 5.2 0.00 0.00 0.00 62 1005.9
20260505072503 67 63 2.6 6.1 0.00 0.00 0.00 61 1005.6
20260505072416 67 63 2.6 6.1 0.00 0.00 0.00 61 1005.6
20260505072403 67 64 2.6 6.1 0.00 0.00 0.00 61 1005.6
20260505072305 67 66 2.6 6.1 0.00 0.00 0.00 62 1005.6
20260505072103 66 62 2.6 6.1 0.00 0.00 0.00 63 1005.8
20260505072003 66 61 3.5 6.1 0.00 0.00 0.00 63 1005.8
20260505071903 65 58 2.6 6.1 0.00 0.00 0.00 66 1005.7
20260505071803 65 54 2.6 6.1 0.00 0.00 0.00 64 1005.7
20260505071703 65 52 2.6 6.1 0.00 0.00 0.00 67 1005.8
20260505071603 65 46 2.6 6.1 0.00 0.00 0.00 66 1005.7
20260505071503 65 40 2.6 6.1 0.00 0.00 0.00 67 1005.9
20260505071418 64 33 2.6 6.1 0.00 0.00 0.00 65 1005.9
20260505071403 64 32 2.6 6.1 0.00 0.00 0.00 65 1005.9
20260505071303 64 25 2.6 5.2 0.00 0.00 0.00 65 1005.9
20260505071103 64 7 1.7 4.3 0.00 0.00 0.00 66 1005.9
20260505071003 64 2 1.7 4.3 0.00 0.00 0.00 65 1005.9
20260505070903 65 5 1.7 4.3 0.00 0.00 0.00 65 1005.9
20260505070803 65 2 1.7 4.3 0.00 0.00 0.00 65 1006.0
20260505070703 65 356 1.7 5.2 0.00 0.00 0.00 65 1006.0
20260505070603 65 353 1.7 5.2 0.00 0.00 0.00 65 1006.0
20260505070503 65 354 1.7 5.2 0.00 0.00 0.00 64 1006.0
20260505070403 65 354 2.6 5.2 0.00 0.00 0.00 66 1006.0
20260505070303 65 348 2.6 5.2 0.00 0.00 0.00 66 1006.0
20260505070203 65 347 2.6 6.1 0.00 0.00 0.00 66 1006.0
20260505070003 65 350 2.6 6.1 0.00 0.00 0.00 64 1005.8
20260505065903 65 347 2.6 6.1 0.00 0.00 0.00 65 1005.9
20260505065803 65 343 2.6 6.1 0.00 0.00 0.00 64 1006.1
20260505065703 65 343 2.6 6.1 0.00 0.00 0.00 63 1006.2
20260505065603 65 342 2.6 6.1 0.00 0.00 0.00 64 1006.2
20260505065503 65 342 1.7 6.1 0.00 0.00 0.00 66 1006.2
20260505065403 65 343 1.7 6.1 0.00 0.00 0.00 66 1006.2
20260505065304 65 356 1.7 6.1 0.00 0.00 0.00 64 1006.1
20260505065203 65 10 1.7 6.1 0.00 0.00 0.00 64 1006.2
20260505065103 65 19 1.7 6.1 0.00 0.00 0.00 64 1006.1
20260505065003 65 32 1.7 5.2 0.00 0.00 0.00 66 1006.1
20260505064903 65 46 1.7 4.3 0.00 0.00 0.00 69 1005.9
20260505064803 64 51 1.7 4.3 0.00 0.00 0.00 66 1006.2
20260505064703 64 52 1.7 4.3 0.00 0.00 0.00 67 1006.2
20260505064619 64 58 1.7 4.3 0.00 0.00 0.00 67 1006.2
20260505064603 64 53 1.7 4.3 0.00 0.00 0.00 67 1006.2
20260505064503 64 31 1.7 4.3 0.00 0.00 0.00 67 1006.1
20260505064303 64 338 1.7 4.3 0.00 0.00 0.00 67 1006.2
20260505064203 64 328 1.7 4.3 0.00 0.00 0.00 67 1006.2
20260505064103 64 321 1.7 4.3 0.00 0.00 0.00 66 1006.2
20260505064003 64 308 1.7 4.3 0.00 0.00 0.00 65 1006.4
20260505063903 64 299 1.7 4.3 0.00 0.00 0.00 66 1006.4
20260505063803 64 304 1.7 4.3 0.00 0.00 0.00 70 1006.1
20260505063703 64 316 1.7 4.3 0.00 0.00 0.00 71 1006.5
20260505063603 64 327 1.7 4.3 0.00 0.00 0.00 71 1006.2
20260505063503 63 337 1.7 4.3 0.00 0.00 0.00 68 1006.2
20260505063403 63 339 1.7 4.3 0.00 0.00 0.00 68 1006.2
20260505063317 63 339 1.7 4.3 0.00 0.00 0.00 68 1006.4
20260505063303 63 340 1.7 4.3 0.00 0.00 0.00 68 1006.2
20260505063219 63 341 1.7 4.3 0.00 0.00 0.00 69 1006.2
20260505063203 63 342 1.7 4.3 0.00 0.00 0.00 69 1006.2
20260505062903 63 359 1.7 5.2 0.00 0.00 0.00 68 1006.2
20260505062817 63 3 1.7 5.2 0.00 0.00 0.00 67 1006.6
20260505062803 63 3 2.6 5.2 0.00 0.00 0.00 67 1006.4
20260505062703 63 4 2.6 5.2 0.00 0.00 0.00 69 1006.2
20260505062619 63 4 2.6 5.2 0.00 0.00 0.00 69 1006.2
20260505062503 63 1 2.6 5.2 0.00 0.00 0.00 69 1006.4
20260505062319 63 12 2.6 5.2 0.00 0.00 0.00 68 1006.1
20260505062304 63 14 2.6 5.2 0.00 0.00 0.00 68 1006.1
20260505062203 63 13 2.6 5.2 0.00 0.00 0.00 68 1006.4
20260505062003 63 22 1.7 5.2 0.00 0.00 0.00 68 1006.1
20260505061903 63 33 1.7 4.3 0.00 0.00 0.00 70 1006.1
20260505061803 63 36 1.7 4.3 0.00 0.00 0.00 70 1006.1
20260505061703 63 31 1.7 4.3 0.00 0.00 0.00 68 1006.1
20260505061603 63 26 1.7 4.3 0.00 0.00 0.00 70 1006.0
20260505061503 62 24 1.7 4.3 0.00 0.00 0.00 68 1006.1
20260505061418 62 19 1.7 4.3 0.00 0.00 0.00 70 1006.1
20260505061403 62 18 1.7 4.3 0.00 0.00 0.00 70 1006.1
20260505061317 62 12 1.7 4.3 0.00 0.00 0.00 71 1006.1
20260505061303 62 11 1.7 4.3 0.00 0.00 0.00 71 1006.2
20260505061003 62 11 2.6 4.3 0.00 0.00 0.00 70 1006.0
20260505060903 62 10 2.6 4.3 0.00 0.00 0.00 69 1006.0
20260505060818 62 7 2.6 4.3 0.00 0.00 0.00 70 1006.1
20260505060803 62 7 2.6 4.3 0.00 0.00 0.00 70 1006.0
20260505060703 62 16 2.6 4.3 0.00 0.00 0.00 70 1006.0
20260505060619 62 24 2.6 4.3 0.00 0.00 0.00 70 1006.0
20260505060503 62 33 2.6 5.2 0.00 0.00 0.00 69 1006.0
20260505060303 62 45 2.6 5.2 0.00 0.00 0.00 70 1006.2
20260505060217 62 47 2.6 5.2 0.00 0.00 0.00 70 1006.2
20260505060203 62 47 2.6 5.2 0.00 0.00 0.00 70 1006.0
20260505060116 62 47 2.6 5.2 0.00 0.00 0.00 70 1006.0
20260505060103 62 46 2.6 5.2 0.00 0.00 0.00 70 1006.2
20260505055917 62 46 2.6 5.2 0.00 0.00 0.00 72 1006.2
20260505055803 62 46 2.6 5.2 0.00 0.00 0.00 71 1006.2
20260505055718 61 47 2.6 5.2 0.00 0.00 0.00 72 1006.2
20260505055603 61 40 2.6 5.2 0.00 0.00 0.00 71 1006.0
20260505055403 61 33 2.6 5.2 0.00 0.00 0.00 72 1005.9
20260505055304 61 28 2.6 5.2 0.00 0.00 0.00 73 1006.2
20260505055219 61 26 2.6 5.2 0.00 0.00 0.00 73 1006.2
20260505055203 61 25 2.6 5.2 0.00 0.00 0.00 72 1006.2
20260505055103 60 25 2.6 5.2 0.00 0.00 0.00 73 1006.2
20260505055016 60 20 2.6 4.3 0.00 0.00 0.00 73 1006.2
20260505054903 60 19 2.6 4.3 0.00 0.00 0.00 73 1006.2
20260505054817 60 20 2.6 4.3 0.00 0.00 0.00 73 1006.4
20260505054703 60 18 2.6 4.3 0.00 0.00 0.00 73 1006.2
20260505054503 60 22 2.6 4.3 0.00 0.00 0.00 73 1006.2
20260505054403 60 23 2.6 4.3 0.00 0.00 0.00 72 1006.2
20260505054318 60 26 2.6 4.3 0.00 0.00 0.00 74 1005.9
20260505054303 60 27 2.6 4.3 0.00 0.00 0.00 74 1006.0
20260505054217 60 31 2.6 4.3 0.00 0.00 0.00 73 1006.0
20260505054203 60 34 2.6 4.3 0.00 0.00 0.00 73 1005.9
20260505053903 61 55 2.6 5.2 0.00 0.00 0.00 72 1006.0
20260505053803 61 59 2.6 5.2 0.00 0.00 0.00 73 1005.9
20260505053718 61 62 2.6 5.2 0.00 0.00 0.00 74 1005.9
20260505053703 61 63 2.6 5.2 0.00 0.00 0.00 74 1005.9
20260505053603 60 66 2.6 5.2 0.00 0.00 0.00 74 1006.0
20260505053418 60 69 2.6 5.2 0.00 0.00 0.00 74 1006.0
20260505053404 60 69 2.6 5.2 0.00 0.00 0.00 75 1005.9
20260505053303 60 70 2.6 5.2 0.00 0.00 0.00 77 1005.7
20260505053103 60 68 2.6 5.2 0.00 0.00 0.00 77 1006.0
20260505053003 60 67 2.6 5.2 0.00 0.00 0.00 75 1005.8
20260505052919 60 69 2.6 4.3 0.00 0.00 0.00 76 1005.8
20260505052903 60 70 2.6 4.3 0.00 0.00 0.00 76 1005.8
20260505052803 60 70 2.6 4.3 0.00 0.00 0.00 76 1005.8
20260505052618 60 76 2.6 4.3 0.00 0.00 0.00 76 1005.9
20260505052603 60 77 2.6 3.5 0.00 0.00 0.00 76 1005.7
20260505052517 60 76 2.6 3.5 0.00 0.00 0.00 76 1005.7
20260505052503 60 77 2.6 3.5 0.00 0.00 0.00 76 1005.9
20260505052416 60 76 2.6 3.5 0.00 0.00 0.00 80 1005.9
20260505052217 59 82 2.6 3.5 0.00 0.00 0.00 80 1005.9
20260505052103 58 82 2.6 3.5 0.00 0.00 0.00 81 1005.7
20260505051903 58 78 1.7 3.5 0.00 0.00 0.00 83 1005.8
20260505051803 58 78 1.7 3.5 0.00 0.00 0.00 82 1005.9
20260505051718 58 77 1.7 3.5 0.00 0.00 0.00 82 1005.9
20260505051703 58 75 1.7 3.5 0.00 0.00 0.00 84 1005.8
20260505051603 58 73 1.7 3.5 0.00 0.00 0.00 84 1005.8
20260505051403 57 71 1.7 3.5 0.00 0.00 0.00 84 1005.7
20260505051303 57 69 1.7 3.5 0.00 0.00 0.00 86 1005.7
20260505051203 56 68 1.7 3.5 0.00 0.00 0.00 85 1005.7
20260505051103 56 64 1.7 3.5 0.00 0.00 0.00 86 1005.9
20260505051003 56 58 0.9 3.5 0.00 0.00 0.00 86 1005.9
20260505050903 55 51 0.9 3.5 0.00 0.00 0.00 87 1005.7
20260505050803 55 46 0.9 2.6 0.00 0.00 0.00 88 1005.9
20260505050716 55 44 0.9 2.6 0.00 0.00 0.00 90 1005.9
20260505050703 55 43 0.9 2.6 0.00 0.00 0.00 90 1005.7
20260505050603 54 43 0.9 2.6 0.00 0.00 0.00 90 1005.8
20260505050403 54 43 0.9 2.6 0.00 0.00 0.00 90 1005.9
20260505050318 54 52 0.9 1.7 0.00 0.00 0.00 91 1005.9
20260505050303 54 53 0.9 1.7 0.00 0.00 0.00 91 1005.7
20260505050203 54 58 0.9 1.7 0.00 0.00 0.00 91 1005.8
20260505041703 50 95 0.9 2.6 0.00 0.00 0.00 98 1005.7
20260505041616 50 97 0.9 2.6 0.00 0.00 0.00 98 1005.7
20260505041603 50 98 0.9 2.6 0.00 0.00 0.00 98 1005.7
20260505041503 50 99 1.7 2.6 0.00 0.00 0.00 98 1005.6
20260505041316 50 99 0.9 2.6 0.00 0.00 0.00 98 1005.6
20260505041303 50 99 0.9 2.6 0.00 0.00 0.00 98 1005.5
20260505041203 50 99 0.9 2.6 0.00 0.00 0.00 98 1005.5
20260505041003 50 102 0.9 2.6 0.00 0.00 0.00 98 1005.5
20260505040903 50 96 0.9 1.7 0.00 0.00 0.00 98 1005.5
20260505040803 50 86 0.0 1.7 0.00 0.00 0.00 98 1005.6
20260505040703 49 83 0.0 1.7 0.00 0.00 0.00 98 1005.6
20260505040603 49 84 0.0 1.7 0.00 0.00 0.00 98 1005.5
20260505040503 49 87 0.9 2.6 0.00 0.00 0.00 98 1005.5
20260505040403 49 88 0.9 2.6 0.00 0.00 0.00 98 1005.7
20260505040303 49 91 0.9 2.6 0.00 0.00 0.00 98 1005.6
20260505040203 49 92 0.9 2.6 0.00 0.00 0.00 98 1005.7
20260505040103 49 92 1.7 2.6 0.00 0.00 0.00 98 1005.5
20260505040004 49 92 1.7 2.6 0.00 0.00 0.00 98 1005.5
20260505035903 49 93 1.7 2.6 0.00 0.00 0.00 98 1005.5
20260505035803 49 94 1.7 2.6 0.00 0.00 0.00 98 1005.6
20260505035703 49 91 1.7 2.6 0.00 0.00 0.00 98 1005.6
20260505035603 49 89 1.7 2.6 0.00 0.00 0.00 98 1005.6
20260505035503 49 87 1.7 2.6 0.00 0.00 0.00 98 1005.5
20260505035403 49 82 1.7 2.6 0.00 0.00 0.00 98 1005.6
20260505035315 49 70 0.9 2.6 0.00 0.00 0.00 98 1005.6
20260505035304 49 67 0.9 2.6 0.00 0.00 0.00 98 1005.5
20260505035203 49 55 0.9 2.6 0.00 0.00 0.00 98 1005.5
20260505035020 49 47 0.9 2.6 0.00 0.00 0.00 98 1005.7
20260505035003 49 51 0.9 2.6 0.00 0.00 0.00 98 1005.5
20260505034903 49 54 0.9 2.6 0.00 0.00 0.00 98 1005.5
20260505034703 49 83 1.7 2.6 0.00 0.00 0.00 98 1005.6
20260505034603 49 89 1.7 2.6 0.00 0.00 0.00 98 1005.5
20260505034503 49 89 1.7 2.6 0.00 0.00 0.00 98 1005.5
20260505034403 48 89 1.7 2.6 0.00 0.00 0.00 98 1005.6
20260505034303 48 90 1.7 2.6 0.00 0.00 0.00 98 1005.7
20260505034216 48 90 1.7 2.6 0.00 0.00 0.00 98 1005.7
20260505034203 48 91 1.7 2.6 0.00 0.00 0.00 98 1005.6
20260505034103 48 92 1.7 2.6 0.00 0.00 0.00 98 1005.6
20260505033903 48 88 0.9 2.6 0.00 0.00 0.00 98 1005.5
20260505033803 48 85 0.9 3.5 0.00 0.00 0.00 98 1005.6
20260505033703 48 83 0.9 4.3 0.00 0.00 0.00 98 1005.6
20260505033603 48 81 0.9 4.3 0.00 0.00 0.00 98 1005.6
20260505033503 48 80 1.7 4.3 0.00 0.00 0.00 98 1005.6
20260505033403 48 81 1.7 4.3 0.00 0.00 0.00 98 1005.7
20260505033303 48 84 1.7 4.3 0.00 0.00 0.00 98 1005.5
20260505033218 48 84 1.7 4.3 0.00 0.00 0.00 98 1005.5
20260505033203 48 84 1.7 4.3 0.00 0.00 0.00 98 1005.5
20260505033103 48 82 2.6 4.3 0.00 0.00 0.00 98 1005.5
20260505032903 48 77 1.7 4.3 0.00 0.00 0.00 98 1005.6
20260505032816 48 73 1.7 4.3 0.00 0.00 0.00 98 1005.6
20260505032803 48 71 1.7 4.3 0.00 0.00 0.00 98 1005.5
20260505032703 48 64 1.7 4.3 0.00 0.00 0.00 98 1005.5
20260505032503 48 45 1.7 3.5 0.00 0.00 0.00 98 1005.5
20260505032403 48 29 1.7 3.5 0.00 0.00 0.00 98 1005.5
20260505032304 48 15 0.9 2.6 0.00 0.00 0.00 98 1005.6
20260505032203 48 7 0.9 1.7 0.00 0.00 0.00 98 1005.7
20260505032103 48 1 0.9 1.7 0.00 0.00 0.00 98 1005.7
20260505032003 48 356 0.9 1.7 0.00 0.00 0.00 98 1005.7
20260505031916 48 352 0.9 1.7 0.00 0.00 0.00 98 1005.6
20260505031903 48 351 0.9 1.7 0.00 0.00 0.00 98 1005.8
20260505031803 48 350 0.9 1.7 0.00 0.00 0.00 98 1005.7
20260505031603 48 347 0.9 1.7 0.00 0.00 0.00 98 1005.7
20260505031503 48 346 0.9 1.7 0.00 0.00 0.00 98 1005.6
20260505031403 48 341 0.9 2.6 0.00 0.00 0.00 98 1005.9
20260505031303 48 337 0.9 2.6 0.00 0.00 0.00 98 1005.9
20260505031203 48 332 0.9 2.6 0.00 0.00 0.00 98 1005.6
20260505031103 48 329 0.9 2.6 0.00 0.00 0.00 98 1005.7
20260505031003 48 328 0.9 2.6 0.00 0.00 0.00 98 1005.5
20260505030903 48 327 0.9 2.6 0.00 0.00 0.00 98 1005.9
20260505030803 48 326 0.9 2.6 0.00 0.00 0.00 98 1005.9
20260505030703 47 323 1.7 2.6 0.00 0.00 0.00 98 1005.8
20260505030603 47 322 1.7 2.6 0.00 0.00 0.00 98 1005.6
20260505030516 47 320 1.7 2.6 0.00 0.00 0.00 97 1005.6
20260505030503 47 320 1.7 2.6 0.00 0.00 0.00 97 1005.7
20260505030403 47 321 1.7 2.6 0.00 0.00 0.00 97 1005.6
20260505030203 47 326 1.7 2.6 0.00 0.00 0.00 97 1005.7
20260505030103 47 332 1.7 2.6 0.00 0.00 0.00 97 1005.7
20260505030003 47 338 1.7 2.6 0.00 0.00 0.00 97 1005.5
20260505025916 47 341 1.7 2.6 0.00 0.00 0.00 97 1005.5
20260505025903 47 343 1.7 2.6 0.00 0.00 0.00 97 1005.7
20260505025803 47 348 1.7 2.6 0.00 0.00 0.00 97 1005.8
20260505025603 47 2 1.7 2.6 0.00 0.00 0.00 97 1005.7
20260505025503 47 10 1.7 2.6 0.00 0.00 0.00 97 1005.7
20260505025403 47 13 1.7 2.6 0.00 0.00 0.00 97 1005.6
20260505025304 47 14 1.7 2.6 0.00 0.00 0.00 97 1005.6
20260505025203 47 12 1.7 2.6 0.00 0.00 0.00 97 1005.8
20260505025116 47 10 1.7 2.6 0.00 0.00 0.00 97 1005.8
20260505025104 47 9 1.7 2.6 0.00 0.00 0.00 97 1005.6
20260505025004 47 8 1.7 2.6 0.00 0.00 0.00 97 1005.6
20260505024803 47 12 1.7 2.6 0.00 0.00 0.00 97 1005.5
20260505024703 47 17 1.7 2.6 0.00 0.00 0.00 97 1005.7
20260505024603 47 20 1.7 2.6 0.00 0.00 0.00 97 1005.8
20260505024503 48 19 1.7 1.7 0.00 0.00 0.00 97 1005.6
20260505024403 48 12 1.7 2.6 0.00 0.00 0.00 97 1005.6
20260505024303 48 5 1.7 3.5 0.00 0.00 0.00 97 1005.6
20260505024203 48 1 1.7 3.5 0.00 0.00 0.00 97 1005.7
20260505024103 48 353 1.7 3.5 0.00 0.00 0.00 97 1005.6
20260505024003 48 343 1.7 3.5 0.00 0.00 0.00 97 1005.5
20260505023903 47 335 1.7 3.5 0.00 0.00 0.00 97 1005.6
20260505023803 47 328 1.7 3.5 0.00 0.00 0.00 97 1005.6
20260505023703 47 322 1.7 3.5 0.00 0.00 0.00 97 1005.7
20260505023603 47 318 1.7 3.5 0.00 0.00 0.00 97 1005.6
20260505023518 47 313 2.6 3.5 0.00 0.00 0.00 97 1005.6
20260505023503 47 312 2.6 3.5 0.00 0.00 0.00 97 1005.6
20260505023403 47 310 2.6 3.5 0.00 0.00 0.00 97 1005.6
20260505023203 47 308 2.6 3.5 0.00 0.00 0.00 97 1005.7
20260505023103 47 307 2.6 3.5 0.00 0.00 0.00 97 1005.5
20260505023003 47 308 2.6 3.5 0.00 0.00 0.00 96 1005.6
20260505022903 47 308 2.6 3.5 0.00 0.00 0.00 97 1005.5
20260505022803 47 307 2.6 3.5 0.00 0.00 0.00 97 1005.7
20260505022703 47 306 2.6 3.5 0.00 0.00 0.00 97 1005.5
20260505022617 48 306 2.6 3.5 0.00 0.00 0.00 97 1005.5
20260505022603 48 306 2.6 3.5 0.00 0.00 0.00 97 1005.6
20260505022503 48 306 1.7 3.5 0.00 0.00 0.00 97 1005.5
20260505022317 47 304 1.7 3.5 0.00 0.00 0.00 97 1005.5
20260505022304 47 303 1.7 3.5 0.00 0.00 0.00 97 1005.6
20260505022203 47 302 1.7 3.5 0.00 0.00 0.00 96 1005.6
20260505022118 47 301 1.7 2.6 0.00 0.00 0.00 96 1005.6
20260505022017 47 301 1.7 2.6 0.00 0.00 0.00 96 1005.5
20260505022003 47 301 1.7 2.6 0.00 0.00 0.00 96 1005.6
20260505021703 48 313 1.7 2.6 0.00 0.00 0.00 96 1005.5
20260505021603 48 320 1.7 2.6 0.00 0.00 0.00 97 1005.5
20260505021518 48 332 1.7 2.6 0.00 0.00 0.00 97 1005.5
20260505021503 48 336 1.7 2.6 0.00 0.00 0.00 97 1005.5
20260505021403 48 19 1.7 2.6 0.00 0.00 0.00 97 1005.3
20260505021319 48 43 1.7 2.6 0.00 0.00 0.00 97 1005.3
20260505021203 48 71 1.7 2.6 0.00 0.00 0.00 97 1005.5
20260505021003 48 92 1.7 2.6 0.00 0.00 0.00 97 1005.7
20260505020917 48 96 1.7 2.6 0.00 0.00 0.00 96 1005.7
20260505020903 48 98 1.7 2.6 0.00 0.00 0.00 96 1005.6
20260505020803 48 102 1.7 2.6 0.00 0.00 0.00 96 1005.5
20260505020718 48 106 1.7 2.6 0.00 0.00 0.00 96 1005.5
20260505020603 48 108 1.7 2.6 0.00 0.00 0.00 96 1005.6
20260505020403 48 111 1.7 2.6 0.00 0.00 0.00 96 1005.5
20260505020303 48 113 1.7 2.6 0.00 0.00 0.00 96 1005.5
20260505020203 48 114 1.7 2.6 0.00 0.00 0.00 96 1005.5
20260505020103 48 115 1.7 2.6 0.00 0.00 0.00 96 1005.5
20260505020003 48 116 1.7 2.6 0.00 0.00 0.00 96 1005.5
20260505015903 48 118 1.7 2.6 0.00 0.00 0.00 96 1005.5
20260505015803 48 121 1.7 2.6 0.00 0.00 0.00 96 1005.5
20260505015703 48 123 1.7 2.6 0.00 0.00 0.00 96 1005.5
20260505015603 48 125 1.7 2.6 0.00 0.00 0.00 96 1005.5
20260505015503 48 128 1.7 2.6 0.00 0.00 0.00 96 1005.5
20260505015403 48 130 1.7 2.6 0.00 0.00 0.00 96 1005.5
20260505015303 48 131 1.7 2.6 0.00 0.00 0.00 96 1005.5
20260505015203 48 131 1.7 2.6 0.00 0.00 0.00 96 1005.4
20260505015116 48 130 0.9 2.6 0.00 0.00 0.00 96 1005.4
20260505015103 48 130 0.9 2.6 0.00 0.00 0.00 96 1005.5
20260505015003 49 130 0.9 2.6 0.00 0.00 0.00 96 1005.5
20260505014803 49 124 0.9 2.6 0.00 0.00 0.00 96 1005.5
20260505014703 49 120 0.9 2.6 0.00 0.00 0.00 96 1005.6
20260505014603 49 104 0.9 2.6 0.00 0.00 0.00 96 1005.5
20260505014503 49 51 0.9 1.7 0.00 0.00 0.00 96 1005.5
20260505014403 49 31 0.0 1.7 0.00 0.00 0.00 96 1005.5
20260505014303 49 4 0.0 1.7 0.00 0.00 0.00 96 1005.5
20260505014203 49 356 0.0 1.7 0.00 0.00 0.00 96 1005.5
20260505014118 49 351 0.0 1.7 0.00 0.00 0.00 96 1005.5
20260505014103 49 350 0.0 1.7 0.00 0.00 0.00 96 1005.5
20260505014017 49 348 0.9 1.7 0.00 0.00 0.00 95 1005.5
20260505014003 49 347 0.9 1.7 0.00 0.00 0.00 95 1005.6
20260505013703 49 350 0.9 1.7 0.00 0.00 0.00 95 1005.5
20260505013603 49 353 0.9 1.7 0.00 0.00 0.00 95 1005.5
20260505013503 49 353 0.9 2.6 0.00 0.00 0.00 95 1005.5
20260505013403 49 348 0.9 2.6 0.00 0.00 0.00 95 1005.6
20260505013303 49 348 0.9 2.6 0.00 0.00 0.00 95 1005.6
20260505013217 49 345 0.9 2.6 0.00 0.00 0.00 95 1005.6
20260505013203 49 345 0.9 2.6 0.00 0.00 0.00 95 1005.5
20260505013103 49 344 1.7 2.6 0.00 0.00 0.00 95 1005.3
20260505012903 49 347 0.9 2.6 0.00 0.00 0.00 95 1005.5
20260505012803 49 348 0.9 2.6 0.00 0.00 0.00 95 1005.5
20260505012703 49 350 0.9 2.6 0.00 0.00 0.00 95 1005.5
20260505012603 49 353 0.9 2.6 0.00 0.00 0.00 95 1005.5
20260505012503 49 355 0.9 2.6 0.00 0.00 0.00 95 1005.5
20260505012403 49 359 0.9 2.6 0.00 0.00 0.00 95 1005.5
20260505012304 49 3 0.9 2.6 0.00 0.00 0.00 95 1005.6
20260505012219 49 7 0.9 1.7 0.00 0.00 0.00 95 1005.6
20260505012203 49 8 0.9 1.7 0.00 0.00 0.00 95 1005.6
20260505012118 49 9 0.9 1.7 0.00 0.00 0.00 95 1005.6
20260505012103 49 10 0.9 1.7 0.00 0.00 0.00 95 1005.5
20260505011803 49 4 0.9 1.7 0.00 0.00 0.00 95 1005.5
20260505011703 49 3 0.9 1.7 0.00 0.00 0.00 95 1005.5
20260505011603 49 360 0.9 2.6 0.00 0.00 0.00 95 1005.5
20260505011503 49 357 0.9 2.6 0.00 0.00 0.00 95 1005.6
20260505011416 49 351 0.9 2.6 0.00 0.00 0.00 94 1005.6
20260505011403 49 349 0.9 2.6 0.00 0.00 0.00 94 1005.7
20260505011303 49 344 0.9 2.6 0.00 0.00 0.00 95 1005.5
20260505011103 49 338 1.7 3.5 0.00 0.00 0.00 95 1005.6
20260505011003 49 338 1.7 3.5 0.00 0.00 0.00 95 1005.6
20260505010903 49 334 1.7 3.5 0.00 0.00 0.00 95 1005.6
20260505010803 49 330 1.7 3.5 0.00 0.00 0.00 94 1005.7
20260505010617 49 322 1.7 3.5 0.00 0.00 0.00 94 1005.8
20260505010603 49 321 1.7 3.5 0.00 0.00 0.00 94 1005.6
20260505010503 49 320 1.7 3.5 0.00 0.00 0.00 94 1005.7
20260505010317 49 323 1.7 3.5 0.00 0.00 0.00 94 1005.6
20260505010303 49 323 1.7 3.5 0.00 0.00 0.00 94 1005.5
20260505010203 49 324 1.7 3.5 0.00 0.00 0.00 94 1005.5
20260505010003 49 319 1.7 3.5 0.00 0.00 0.00 94 1005.7
20260505005903 49 319 1.7 3.5 0.00 0.00 0.00 94 1005.5
20260505005818 49 320 1.7 3.5 0.00 0.00 0.00 93 1005.5
20260505005803 49 321 1.7 3.5 0.00 0.00 0.00 93 1005.6
20260505005703 49 323 1.7 3.5 0.00 0.00 0.00 93 1005.7
20260505005619 49 324 1.7 3.5 0.00 0.00 0.00 93 1005.7
20260505005503 49 324 2.6 3.5 0.00 0.00 0.00 93 1005.5
20260505005416 49 323 2.6 3.5 0.00 0.00 0.00 93 1005.5
20260505005304 49 322 2.6 3.5 0.00 0.00 0.00 93 1005.5
20260505005103 49 323 1.7 3.5 0.00 0.00 0.00 92 1005.5
20260505005004 49 326 1.7 3.5 0.00 0.00 0.00 92 1005.5
20260505004903 49 332 1.7 3.5 0.00 0.00 0.00 92 1005.5
20260505004803 50 339 1.7 3.5 0.00 0.00 0.00 92 1005.5
20260505004718 50 344 1.7 3.5 0.00 0.00 0.00 92 1005.5
20260505004703 50 346 1.7 3.5 0.00 0.00 0.00 93 1005.5
20260505004603 50 348 0.9 3.5 0.00 0.00 0.00 93 1005.6
20260505004403 50 9 0.9 1.7 0.00 0.00 0.00 93 1005.4
20260505004303 50 21 0.9 2.6 0.00 0.00 0.00 92 1005.4
20260505004203 50 27 0.9 3.5 0.00 0.00 0.00 92 1005.5
20260505004103 50 33 0.9 3.5 0.00 0.00 0.00 92 1005.4
20260505004003 50 37 0.9 3.5 0.00 0.00 0.00 92 1005.1
20260505003903 50 39 0.9 3.5 0.00 0.00 0.00 92 1005.3
20260505003803 50 41 0.9 3.5 0.00 0.00 0.00 92 1005.4
20260505003703 50 42 1.7 3.5 0.00 0.00 0.00 92 1005.5
20260505003603 50 45 1.7 3.5 0.00 0.00 0.00 92 1005.4
20260505003503 50 46 1.7 3.5 0.00 0.00 0.00 91 1005.5
20260505003403 50 46 1.7 3.5 0.00 0.00 0.00 91 1005.5
20260505003303 50 45 1.7 3.5 0.00 0.00 0.00 91 1005.4
20260505003103 51 51 1.7 3.5 0.00 0.00 0.00 91 1005.5
20260505003003 51 53 1.7 3.5 0.00 0.00 0.00 91 1005.6
20260505002903 51 57 1.7 3.5 0.00 0.00 0.00 91 1005.5
20260505002819 51 59 1.7 2.6 0.00 0.00 0.00 91 1005.5
20260505002803 51 60 1.7 2.6 0.00 0.00 0.00 91 1005.5
20260505002703 51 60 1.7 2.6 0.00 0.00 0.00 91 1005.5
20260505002403 51 61 1.7 2.6 0.00 0.00 0.00 90 1005.5
20260505002304 51 62 1.7 2.6 0.00 0.00 0.00 90 1005.5
20260505002203 51 61 1.7 2.6 0.00 0.00 0.00 90 1005.6
20260505002103 51 59 1.7 2.6 0.00 0.00 0.00 90 1005.6
20260505002003 51 55 1.7 2.6 0.00 0.00 0.00 89 1005.5
20260505001903 51 52 1.7 2.6 0.00 0.00 0.00 89 1005.5
20260505001803 51 47 1.7 2.6 0.00 0.00 0.00 89 1005.6
20260505001703 52 45 1.7 2.6 0.00 0.00 0.00 89 1005.5
20260505001603 52 42 1.7 2.6 0.00 0.00 0.00 89 1005.7
20260505001503 52 41 1.7 2.6 0.00 0.00 0.00 88 1005.5
20260505001403 52 37 0.9 2.6 0.00 0.00 0.00 88 1005.6
20260505001303 52 34 0.9 2.6 0.00 0.00 0.00 89 1005.5
20260505001203 52 32 0.9 1.7 0.00 0.00 0.00 89 1005.5
20260505001120 52 25 0.9 1.7 0.00 0.00 0.00 89 1005.5
20260505001103 52 23 0.9 1.7 0.00 0.00 0.00 89 1005.5
20260505001003 52 11 0.9 2.6 0.00 0.00 0.00 89 1005.7
20260505000803 52 343 0.9 3.5 0.00 0.00 0.00 88 1005.8
20260505000703 52 335 0.9 3.5 0.00 0.00 0.00 88 1005.7
20260505000603 52 328 0.9 3.5 0.00 0.00 0.00 87 1005.8
20260505000503 53 323 0.9 3.5 0.00 0.00 0.00 88 1005.6
20260505000420 53 320 0.9 3.5 0.00 0.00 0.00 88 1005.6
20260505000405 53 320 0.9 3.5 0.00 0.00 0.00 88 1005.7
20260505000303 53 319 0.9 3.5 0.00 0.00 0.00 87 1005.6
20260505000103 53 328 1.7 3.5 0.00 0.00 0.00 87 1005.4
20260505000004 53 337 1.7 3.5 0.00 0.00 0.00 87 1005.6
20260504235903 53 341 1.7 3.5 0.00 0.00 0.81 86 1005.7
20260504235803 53 349 1.7 3.5 0.00 0.00 0.81 86 1005.7
20260504235703 53 2 1.7 3.5 0.00 0.00 0.81 86 1005.5
20260504235603 53 13 1.7 3.5 0.00 0.00 0.81 86 1005.6
20260504235503 53 23 1.7 3.5 0.00 0.00 0.81 85 1005.5
20260504235403 53 33 1.7 3.5 0.00 0.00 0.81 84 1005.6
20260504235304 53 39 1.7 3.5 0.00 0.00 0.81 85 1005.5
20260504235203 53 46 1.7 3.5 0.00 0.00 0.81 84 1005.5
20260504235103 53 49 1.7 3.5 0.00 0.00 0.81 85 1005.5
20260504235003 53 53 1.7 3.5 0.00 0.00 0.81 84 1005.7
20260504234903 54 58 1.7 3.5 0.00 0.00 0.81 84 1005.7
20260504234803 54 61 1.7 3.5 0.00 0.00 0.81 84 1005.5
20260504234703 54 59 1.7 3.5 0.00 0.00 0.81 82 1005.8
20260504234603 54 60 1.7 3.5 0.00 0.00 0.81 83 1005.6
20260504234503 54 55 1.7 3.5 0.00 0.00 0.81 84 1005.6
20260504234403 54 51 1.7 2.6 0.00 0.00 0.81 84 1005.7
20260504234303 54 51 1.7 2.6 0.00 0.00 0.81 83 1005.5
20260504234203 54 51 1.7 2.6 0.00 0.00 0.81 83 1005.8
20260504234103 55 50 1.7 2.6 0.00 0.00 0.81 83 1005.7
20260504234003 55 48 1.7 2.6 0.00 0.00 0.81 83 1005.7
20260504233903 55 43 1.7 2.6 0.00 0.00 0.81 81 1005.7
20260504233803 55 37 0.9 2.6 0.00 0.00 0.81 81 1005.6
20260504233703 55 35 1.7 3.5 0.00 0.00 0.81 81 1005.7
20260504233603 55 32 1.7 3.5 0.00 0.00 0.81 81 1005.8
20260504233503 55 35 1.7 3.5 0.00 0.00 0.81 82 1005.8
20260504233403 55 35 1.7 3.5 0.00 0.00 0.81 82 1005.8
20260504233303 55 32 1.7 3.5 0.00 0.00 0.81 81 1005.6
20260504233103 56 22 1.7 3.5 0.00 0.00 0.81 80 1005.7
20260504233003 56 19 1.7 3.5 0.00 0.00 0.81 79 1005.8
20260504232903 56 18 1.7 3.5 0.00 0.00 0.81 80 1005.9
20260504232803 56 20 1.7 3.5 0.00 0.00 0.81 79 1005.9
20260504232718 56 23 1.7 3.5 0.00 0.00 0.81 79 1005.9
20260504232703 56 23 1.7 3.5 0.00 0.00 0.81 79 1005.8
20260504232616 56 24 1.7 4.3 0.00 0.00 0.81 79 1005.8
20260504232603 56 25 1.7 4.3 0.00 0.00 0.81 79 1006.0
20260504232304 56 21 1.7 4.3 0.00 0.00 0.81 78 1005.7
20260504232203 57 24 1.7 4.3 0.00 0.00 0.81 78 1005.9
20260504232103 57 24 1.7 4.3 0.00 0.00 0.81 79 1005.9
20260504232003 56 27 1.7 4.3 0.00 0.00 0.81 79 1005.9
20260504231803 57 24 1.7 4.3 0.00 0.00 0.81 78 1005.9
20260504231703 57 18 1.7 4.3 0.00 0.00 0.81 78 1005.9
20260504231603 57 13 1.7 4.3 0.00 0.00 0.81 78 1005.8
20260504231503 57 11 1.7 4.3 0.00 0.00 0.81 78 1006.0
20260504231403 57 9 1.7 4.3 0.00 0.00 0.81 78 1005.8
20260504231303 57 7 1.7 4.3 0.00 0.00 0.81 78 1005.9
20260504231203 57 1 2.6 4.3 0.00 0.00 0.81 77 1005.8
20260504231103 57 359 2.6 4.3 0.00 0.00 0.81 78 1005.9
20260504231003 57 356 2.6 4.3 0.00 0.00 0.81 78 1006.1
20260504230903 57 352 2.6 4.3 0.00 0.00 0.81 78 1006.0
20260504230803 57 351 2.6 4.3 0.00 0.00 0.81 77 1006.0
20260504230703 57 351 2.6 4.3 0.00 0.00 0.81 77 1005.8
20260504230603 57 354 2.6 4.3 0.00 0.00 0.81 77 1005.9
20260504230503 57 355 2.6 4.3 0.00 0.00 0.81 77 1006.2
20260504230403 58 354 2.6 5.2 0.00 0.00 0.81 77 1006.1
20260504230303 58 353 2.6 5.2 0.00 0.00 0.81 77 1006.2
20260504230203 58 353 2.6 5.2 0.00 0.00 0.81 77 1006.0
20260504230003 58 354 2.6 5.2 0.00 0.00 0.81 76 1006.0
20260504225903 58 359 2.6 5.2 0.00 0.00 0.81 76 1005.9
20260504225804 58 1 2.6 5.2 0.00 0.00 0.81 76 1006.1
20260504225703 58 1 2.6 6.1 0.00 0.00 0.81 77 1006.0
20260504225603 58 1 2.6 8.7 0.00 0.00 0.81 76 1006.0
20260504225503 58 360 3.5 8.7 0.00 0.00 0.81 76 1005.9
20260504225304 58 1 3.5 8.7 0.00 0.00 0.81 76 1006.1
20260504225216 58 3 3.5 8.7 0.00 0.00 0.81 76 1006.1
20260504225203 58 4 2.6 8.7 0.00 0.00 0.81 77 1006.0
20260504225103 58 5 2.6 8.7 0.00 0.00 0.81 77 1005.9
20260504224903 58 4 2.6 8.7 0.00 0.00 0.81 77 1006.0
20260504224803 58 3 2.6 8.7 0.00 0.00 0.81 77 1005.9
20260504224717 58 2 2.6 8.7 0.00 0.00 0.81 77 1005.9
20260504224703 58 3 2.6 8.7 0.00 0.00 0.81 77 1006.1
20260504224603 58 3 2.6 8.7 0.00 0.00 0.81 77 1006.0
20260504224403 58 360 1.7 5.2 0.00 0.00 0.81 77 1006.2
20260504224303 58 358 2.6 5.2 0.00 0.00 0.81 77 1006.1
20260504224203 58 356 2.6 5.2 0.00 0.00 0.81 77 1006.2
20260504224103 58 354 2.6 5.2 0.00 0.00 0.81 77 1006.0
20260504224003 58 355 2.6 5.2 0.00 0.00 0.81 77 1006.1
20260504223903 58 351 2.6 5.2 0.00 0.00 0.81 77 1005.9
20260504223803 58 350 2.6 5.2 0.00 0.00 0.81 76 1006.2
20260504223719 58 352 2.6 5.2 0.00 0.00 0.81 76 1006.2
20260504223703 59 352 2.6 5.2 0.00 0.00 0.81 76 1006.1
20260504223603 59 350 2.6 5.2 0.00 0.00 0.81 76 1005.8
20260504223403 59 344 2.6 5.2 0.00 0.00 0.81 76 1006.1
20260504223303 59 344 2.6 5.2 0.00 0.00 0.81 76 1006.1
20260504223203 59 344 2.6 5.2 0.00 0.00 0.81 76 1006.1
20260504223103 59 340 2.6 5.2 0.00 0.00 0.81 76 1005.9
20260504223003 59 340 2.6 5.2 0.00 0.00 0.81 75 1005.9
20260504222903 59 343 2.6 5.2 0.00 0.00 0.81 75 1006.4
20260504222803 59 342 2.6 7.0 0.00 0.00 0.81 75 1005.9
20260504222717 59 339 2.6 9.6 0.00 0.00 0.81 75 1005.9
20260504222703 59 339 2.6 9.6 0.00 0.00 0.81 75 1006.0
20260504222603 59 343 2.6 9.6 0.00 0.00 0.81 75 1006.1
20260504222403 59 348 3.5 9.6 0.00 0.00 0.81 75 1005.9
20260504222304 59 349 3.5 9.6 0.00 0.00 0.81 74 1006.0
20260504222203 59 349 3.5 9.6 0.00 0.00 0.81 75 1005.9
20260504222103 59 351 3.5 9.6 0.00 0.00 0.81 74 1005.8
20260504222003 59 349 4.3 9.6 0.00 0.00 0.81 74 1005.8
20260504221903 59 349 4.3 9.6 0.00 0.00 0.81 74 1005.9
20260504221803 59 347 4.3 9.6 0.00 0.00 0.81 74 1005.9
20260504221719 59 347 4.3 9.6 0.00 0.00 0.81 74 1005.9
20260504221703 59 347 4.3 9.6 0.00 0.00 0.81 74 1005.6
20260504221603 59 345 4.3 9.6 0.00 0.00 0.81 74 1005.8
20260504221403 59 342 4.3 8.7 0.00 0.00 0.81 74 1005.9
20260504221303 60 340 4.3 8.7 0.00 0.00 0.81 73 1005.9
20260504221216 60 341 4.3 8.7 0.00 0.00 0.81 73 1005.9
20260504221203 60 340 4.3 8.7 0.00 0.00 0.81 73 1005.9
20260504221103 60 340 4.3 8.7 0.00 0.00 0.81 73 1005.9
20260504220914 60 338 4.3 9.6 0.00 0.00 0.81 72 1006.0
20260504220803 60 340 4.3 9.6 0.00 0.00 0.81 72 1005.9
20260504220703 60 341 5.2 9.6 0.00 0.00 0.81 72 1005.9
20260504220603 60 343 5.2 9.6 0.00 0.00 0.81 72 1005.7
20260504220503 60 344 5.2 9.6 0.00 0.00 0.81 72 1005.9
20260504220403 60 344 5.2 9.6 0.00 0.00 0.81 72 1005.9
20260504220303 60 345 4.3 9.6 0.00 0.00 0.81 72 1005.8
20260504220203 60 346 4.3 9.6 0.00 0.00 0.81 72 1005.9
20260504220003 60 349 4.3 9.6 0.00 0.00 0.81 70 1005.9
20260504215903 60 349 4.3 9.6 0.00 0.00 0.81 69 1005.8
20260504215803 60 350 4.3 9.6 0.00 0.00 0.81 69 1005.9
20260504215703 60 351 4.3 9.6 0.00 0.00 0.81 68 1006.0
20260504215603 60 351 3.5 8.7 0.00 0.00 0.81 67 1005.8
20260504215503 60 350 3.5 8.7 0.00 0.00 0.81 67 1005.9
20260504215419 60 349 3.5 8.7 0.00 0.00 0.81 67 1005.9
20260504215403 60 348 3.5 8.7 0.00 0.00 0.81 67 1005.9
20260504215304 60 347 4.3 8.7 0.00 0.00 0.81 67 1006.0
20260504215103 60 346 4.3 8.7 0.00 0.00 0.81 66 1005.8
20260504215003 60 345 4.3 9.6 0.00 0.00 0.81 66 1005.7
20260504214903 60 345 4.3 9.6 0.00 0.00 0.81 66 1005.9
20260504214803 60 346 4.3 10.4 0.00 0.00 0.81 66 1005.8
20260504214703 60 344 5.2 10.4 0.00 0.00 0.81 66 1005.6
20260504214603 60 343 5.2 10.4 0.00 0.00 0.81 66 1005.8
20260504214503 60 342 5.2 13.9 0.00 0.00 0.81 66 1005.8
20260504214403 60 342 5.2 13.9 0.00 0.00 0.81 65 1005.8
20260504214303 60 341 5.2 13.9 0.00 0.00 0.81 66 1005.8
20260504214203 60 339 5.2 13.9 0.00 0.00 0.81 65 1005.8
20260504214103 60 338 6.1 13.9 0.00 0.00 0.81 65 1005.7
20260504214003 60 338 6.1 13.9 0.00 0.00 0.81 65 1005.6
20260504213903 59 335 6.1 13.9 0.00 0.00 0.81 65 1005.8
20260504213803 59 332 5.2 13.9 0.00 0.00 0.81 65 1005.8
20260504213703 59 330 6.1 13.9 0.00 0.00 0.81 65 1005.7
20260504213603 59 327 5.2 13.9 0.00 0.00 0.81 65 1005.5
20260504213516 58 327 5.2 13.9 0.00 0.00 0.81 65 1005.5
20260504213503 58 326 5.2 13.9 0.00 0.00 0.81 65 1005.6
20260504213403 58 324 5.2 13.9 0.00 0.00 0.81 66 1005.7
20260504213203 58 320 5.2 8.7 0.00 0.00 0.81 66 1005.6
20260504213119 58 318 5.2 8.7 0.00 0.00 0.81 66 1005.6
20260504213103 58 318 5.2 8.7 0.00 0.00 0.81 66 1005.5
20260504213003 58 316 5.2 8.7 0.00 0.00 0.81 66 1005.5
20260504212916 57 314 4.3 8.7 0.00 0.00 0.81 67 1005.5
20260504212818 57 313 4.3 8.7 0.00 0.00 0.81 67 1005.7
20260504212503 56 315 4.3 7.8 0.00 0.00 0.81 69 1005.6
20260504212417 55 314 4.3 7.8 0.00 0.00 0.81 69 1005.6
20260504212403 55 313 3.5 7.8 0.00 0.00 0.81 69 1005.5
20260504212304 55 311 3.5 7.8 0.00 0.00 0.81 71 1005.7
20260504212103 55 300 3.5 12.2 0.00 0.00 0.81 71 1005.5
20260504212003 54 300 3.5 13.0 0.00 0.00 0.81 73 1005.5
20260504211903 54 301 3.5 13.0 0.00 0.00 0.81 73 1005.5
20260504211803 54 299 4.3 13.0 0.00 0.00 0.81 73 1005.5
20260504211703 54 297 4.3 13.0 0.00 0.00 0.81 73 1005.5
20260504211603 54 294 4.3 13.0 0.00 0.00 0.81 73 1005.4
20260504211503 54 293 4.3 13.0 0.00 0.00 0.81 73 1005.5
20260504211418 54 294 3.5 13.0 0.00 0.00 0.81 73 1005.5
20260504211403 54 294 3.5 13.0 0.00 0.00 0.81 73 1005.3
20260504211303 53 297 3.5 13.0 0.00 0.00 0.81 74 1005.4
20260504211103 53 309 3.5 13.0 0.00 0.00 0.81 76 1005.0
20260504211003 52 315 2.6 13.0 0.00 0.00 0.81 79 1005.5
20260504210919 52 317 2.6 13.0 0.00 0.00 0.81 81 1005.5
20260504210903 52 320 1.7 13.0 0.00 0.00 0.81 81 1005.4
20260504210803 52 349 1.7 11.3 0.00 0.00 0.81 81 1005.1
20260504210603 52 34 0.9 1.7 0.00 0.00 0.81 80 1005.1
20260504210503 52 45 0.9 1.7 0.00 0.00 0.81 80 1005.3
20260504210417 52 51 0.9 1.7 0.00 0.00 0.81 79 1005.3
20260504210403 52 53 0.9 1.7 0.00 0.00 0.81 79 1005.1
20260504210303 52 62 0.9 1.7 0.00 0.00 0.81 79 1005.0
20260504210004 52 86 0.9 1.7 0.00 0.00 0.81 79 1005.0
20260504205903 52 92 0.9 1.7 0.00 0.00 0.81 79 1005.1
20260504205816 52 95 0.9 1.7 0.00 0.00 0.81 79 1005.1
20260504205803 52 96 0.9 1.7 0.00 0.00 0.81 79 1005.1
20260504205703 52 99 0.9 1.7 0.00 0.00 0.81 78 1005.3
20260504205503 52 102 0.9 1.7 0.00 0.00 0.81 79 1005.0
20260504205418 52 102 0.9 1.7 0.00 0.00 0.81 79 1005.0
20260504205403 52 102 0.9 1.7 0.00 0.00 0.81 79 1005.3
20260504205304 52 101 0.9 1.7 0.00 0.00 0.81 79 1005.3
20260504205103 52 98 0.9 1.7 0.00 0.00 0.81 79 1005.0
20260504205003 53 96 0.9 1.7 0.00 0.00 0.81 78 1005.0
20260504204903 53 92 0.9 1.7 0.00 0.00 0.81 77 1005.3
20260504204803 53 90 0.9 1.7 0.00 0.00 0.81 77 1005.1
20260504204703 53 88 0.9 1.7 0.00 0.00 0.81 77 1005.0
20260504204603 53 86 0.9 1.7 0.00 0.00 0.81 77 1004.9
20260504204503 53 84 0.9 1.7 0.00 0.00 0.81 77 1005.0
20260504204403 53 82 0.9 1.7 0.00 0.00 0.81 77 1005.3
20260504204303 53 78 0.9 1.7 0.00 0.00 0.81 78 1005.1
20260504204203 53 75 0.9 1.7 0.00 0.00 0.81 78 1004.9
20260504204103 53 73 0.9 1.7 0.00 0.00 0.81 77 1005.0
20260504204003 53 71 0.9 1.7 0.00 0.00 0.81 78 1004.9
20260504203903 53 70 0.9 1.7 0.00 0.00 0.81 77 1005.1
20260504203816 53 67 0.9 1.7 0.00 0.00 0.81 77 1005.1
20260504203803 53 66 0.9 1.7 0.00 0.00 0.81 77 1005.1
20260504203703 53 63 0.9 1.7 0.00 0.00 0.81 77 1005.0
20260504203503 53 60 0.9 1.7 0.00 0.00 0.81 77 1005.1
20260504203418 53 61 0.9 1.7 0.00 0.00 0.81 77 1005.1
20260504203403 53 61 0.9 1.7 0.00 0.00 0.81 77 1004.9
20260504203303 53 63 0.9 1.7 0.00 0.00 0.81 76 1005.0
20260504203103 53 69 0.9 1.7 0.00 0.00 0.81 76 1005.1
20260504203003 53 73 0.9 1.7 0.00 0.00 0.81 75 1005.0
20260504202903 53 76 0.9 1.7 0.00 0.00 0.81 74 1005.3
20260504202803 53 82 0.9 1.7 0.00 0.00 0.81 74 1005.1
20260504202703 53 87 0.9 1.7 0.00 0.00 0.81 74 1005.1
20260504202603 53 91 0.9 1.7 0.00 0.00 0.81 74 1005.4
20260504202517 53 94 0.9 1.7 0.00 0.00 0.81 74 1005.4
20260504202503 53 95 0.9 1.7 0.00 0.00 0.81 74 1005.0
20260504202403 54 98 0.9 1.7 0.00 0.00 0.81 74 1004.9
20260504202203 54 104 0.9 1.7 0.00 0.00 0.81 73 1005.3
20260504202103 54 105 0.9 1.7 0.00 0.00 0.81 73 1005.0
20260504202003 54 107 0.9 1.7 0.00 0.00 0.81 73 1005.1
20260504201903 54 108 0.9 1.7 0.00 0.00 0.81 73 1005.1
20260504201803 54 109 0.9 1.7 0.00 0.00 0.81 73 1005.0
20260504201703 54 107 0.9 1.7 0.00 0.00 0.81 73 1005.1
20260504201603 54 105 0.9 1.7 0.00 0.00 0.81 73 1005.0
20260504201503 54 102 0.9 1.7 0.00 0.00 0.81 73 1005.3
20260504201403 54 99 0.9 1.7 0.00 0.00 0.81 73 1005.0
20260504201303 54 94 0.9 1.7 0.00 0.00 0.81 73 1004.8
20260504201203 54 86 0.9 1.7 0.00 0.00 0.81 73 1005.1
20260504201103 54 75 1.7 1.7 0.00 0.00 0.81 73 1005.4
20260504201016 54 67 1.7 1.7 0.00 0.00 0.81 73 1005.4
20260504201003 54 65 1.7 1.7 0.00 0.00 0.81 73 1005.1
20260504200903 54 53 1.7 1.7 0.00 0.00 0.81 73 1005.0
20260504200703 54 31 1.7 1.7 0.00 0.00 0.81 72 1005.1
20260504200603 54 20 1.7 1.7 0.00 0.00 0.81 72 1005.0
20260504200503 54 12 1.7 2.6 0.00 0.00 0.81 72 1005.3
20260504200424 54 6 1.7 2.6 0.00 0.00 0.81 73 1005.3
20260504200403 54 4 1.7 2.6 0.00 0.00 0.81 73 1005.0
20260504200303 54 359 1.7 2.6 0.00 0.00 0.81 73 1005.0
20260504200217 54 358 1.7 2.6 0.00 0.00 0.81 73 1005.0
20260504195903 55 2 1.7 2.6 0.00 0.00 0.81 73 1004.9
20260504195803 55 1 1.7 2.6 0.00 0.00 0.81 73 1004.9
20260504195703 55 356 1.7 2.6 0.00 0.00 0.81 72 1004.9
20260504195603 55 352 1.7 2.6 0.00 0.00 0.81 72 1005.1
20260504195503 55 351 1.7 2.6 0.00 0.00 0.81 72 1005.3
20260504195403 55 351 1.7 2.6 0.00 0.00 0.81 73 1004.9
20260504195304 55 350 1.7 2.6 0.00 0.00 0.81 73 1005.0
20260504195203 55 349 1.7 2.6 0.00 0.00 0.81 73 1004.9
20260504195103 55 348 1.7 2.6 0.00 0.00 0.81 73 1005.0
20260504195003 55 345 1.7 2.6 0.00 0.00 0.81 73 1005.1
20260504194919 55 345 1.7 2.6 0.00 0.00 0.81 74 1005.1
20260504194903 55 345 1.7 2.6 0.00 0.00 0.81 74 1004.9
20260504194803 55 345 1.7 2.6 0.00 0.00 0.81 73 1004.9
20260504194603 55 352 1.7 2.6 0.00 0.00 0.81 74 1005.0
20260504194517 55 353 1.7 2.6 0.00 0.00 0.81 74 1005.0
20260504194503 55 353 1.7 2.6 0.00 0.00 0.81 74 1005.3
20260504194416 55 353 1.7 2.6 0.00 0.00 0.81 73 1005.3
20260504194403 55 353 1.7 2.6 0.00 0.00 0.81 73 1004.9
20260504194103 55 352 1.7 2.6 0.00 0.00 0.81 73 1004.9
20260504194003 55 350 0.9 2.6 0.00 0.00 0.81 73 1005.0
20260504193903 55 353 0.9 2.6 0.00 0.00 0.81 73 1005.0
20260504193803 56 357 0.9 1.7 0.00 0.00 0.81 72 1005.0
20260504193703 56 2 0.9 1.7 0.00 0.00 0.81 72 1005.3
20260504193603 56 7 0.9 1.7 0.00 0.00 0.81 70 1005.3
20260504193503 56 13 0.9 1.7 0.00 0.00 0.81 71 1005.1
20260504193403 56 18 0.9 1.7 0.00 0.00 0.81 70 1005.0
20260504193303 56 22 0.9 1.7 0.00 0.00 0.81 70 1005.1
20260504193203 56 27 0.9 1.7 0.00 0.00 0.81 70 1005.1
20260504193103 56 32 0.9 1.7 0.00 0.00 0.81 69 1005.0
20260504193003 56 40 0.9 1.7 0.00 0.00 0.81 69 1005.3
20260504192903 56 41 0.9 1.7 0.00 0.00 0.81 68 1005.0
20260504192803 56 36 0.9 1.7 0.00 0.00 0.81 70 1005.0
20260504192703 56 33 0.9 1.7 0.00 0.00 0.81 68 1005.0
20260504192619 56 31 0.9 1.7 0.00 0.00 0.81 68 1005.0
20260504192603 57 31 0.9 1.7 0.00 0.00 0.81 68 1005.3
20260504192503 57 26 0.9 1.7 0.00 0.00 0.81 67 1005.1
20260504192304 57 21 0.9 1.7 0.00 0.00 0.81 68 1005.1
20260504192203 57 20 0.9 1.7 0.00 0.00 0.81 68 1005.3
20260504192103 57 20 0.9 1.7 0.00 0.00 0.81 68 1005.3
20260504192018 57 19 0.9 1.7 0.00 0.00 0.81 68 1005.3
20260504192003 57 19 0.9 1.7 0.00 0.00 0.81 68 1005.0
20260504191903 57 19 0.9 1.7 0.00 0.00 0.81 68 1005.0
20260504191820 57 23 1.7 1.7 0.00 0.00 0.81 67 1005.0
20260504191503 57 41 1.7 1.7 0.00 0.00 0.81 67 1005.3
20260504191403 57 47 1.7 1.7 0.00 0.00 0.81 67 1005.0
20260504191303 57 52 1.7 1.7 0.00 0.00 0.81 68 1005.1
20260504191219 57 55 1.7 1.7 0.00 0.00 0.81 68 1005.1
20260504191203 57 57 1.7 1.7 0.00 0.00 0.81 68 1005.1
20260504191103 58 62 1.7 1.7 0.00 0.00 0.81 67 1005.3
20260504190903 58 73 1.7 1.7 0.00 0.00 0.81 65 1005.1
20260504190803 58 76 1.7 1.7 0.00 0.00 0.81 65 1005.3
20260504190703 58 79 1.7 1.7 0.00 0.00 0.81 64 1005.4
20260504190603 58 80 1.7 1.7 0.00 0.00 0.81 64 1005.4
20260504190503 58 82 1.7 1.7 0.00 0.00 0.81 64 1005.1
20260504190403 58 83 1.7 1.7 0.00 0.00 0.81 64 1005.4
20260504190318 58 84 1.7 1.7 0.00 0.00 0.81 63 1005.4
20260504190303 58 84 1.7 1.7 0.00 0.00 0.81 63 1005.3
20260504190203 58 86 1.7 1.7 0.00 0.00 0.81 63 1005.1
20260504190003 58 88 0.9 1.7 0.00 0.00 0.81 63 1005.0
20260504185903 58 88 0.9 1.7 0.00 0.00 0.81 64 1005.0
20260504185803 58 87 0.9 1.7 0.00 0.00 0.81 64 1005.4
20260504185703 58 86 0.9 1.7 0.00 0.00 0.81 64 1005.3
20260504185603 58 81 0.9 1.7 0.00 0.00 0.81 65 1005.1
20260504185503 59 75 0.9 1.7 0.00 0.00 0.81 65 1005.3
20260504185403 59 67 0.9 3.5 0.00 0.00 0.81 65 1005.1
20260504185316 59 46 0.9 3.5 0.00 0.00 0.81 65 1005.1
20260504185304 59 25 0.9 3.5 0.00 0.00 0.81 64 1005.3
20260504185203 59 333 0.9 4.3 0.00 0.00 0.81 64 1005.5
20260504185003 59 303 1.7 4.3 0.00 0.00 0.81 66 1005.5
20260504184903 59 300 1.7 4.3 0.00 0.00 0.81 64 1005.3
20260504184803 59 299 1.7 4.3 0.00 0.00 0.81 65 1005.4
20260504184703 59 298 1.7 4.3 0.00 0.00 0.81 64 1005.3
20260504184603 59 297 1.7 4.3 0.00 0.00 0.81 64 1005.1
20260504184503 59 295 1.7 4.3 0.00 0.00 0.81 64 1005.5
20260504184403 60 300 1.7 4.3 0.00 0.00 0.81 70 1005.3
20260504184303 60 305 1.7 4.3 0.00 0.00 0.81 70 1005.3
20260504184203 60 312 1.7 4.3 0.00 0.00 0.81 70 1005.4
20260504184103 60 327 1.7 4.3 0.00 0.00 0.81 70 1005.5
20260504184003 60 3 0.9 4.3 0.00 0.00 0.81 70 1005.5
20260504183903 60 45 0.9 2.6 0.00 0.00 0.81 65 1005.3
20260504183803 60 62 0.9 1.7 0.00 0.00 0.81 61 1005.4
20260504183703 60 73 0.9 1.7 0.00 0.00 0.81 61 1005.1
20260504183603 60 78 0.9 1.7 0.00 0.00 0.81 61 1005.4
20260504183503 60 80 0.9 1.7 0.00 0.00 0.81 60 1005.3
20260504183403 60 82 0.9 1.7 0.00 0.00 0.81 59 1005.1
20260504183303 60 82 0.9 1.7 0.00 0.00 0.81 59 1005.0
20260504183203 61 79 0.9 1.7 0.00 0.00 0.81 59 1005.1
20260504183103 61 74 0.9 1.7 0.00 0.00 0.81 58 1005.0
20260504183016 61 69 0.9 1.7 0.00 0.00 0.81 58 1005.0
20260504183003 61 68 0.9 1.7 0.00 0.00 0.81 58 1005.4
20260504182919 61 64 0.9 1.7 0.00 0.00 0.81 58 1005.4
20260504182903 61 63 0.9 1.7 0.00 0.00 0.81 58 1005.1
20260504182603 61 55 0.9 1.7 0.00 0.00 0.81 58 1005.1
20260504182517 61 54 0.9 1.7 0.00 0.00 0.81 58 1005.1
20260504182503 61 54 0.9 1.7 0.00 0.00 0.81 58 1005.4
20260504182403 61 54 0.9 1.7 0.00 0.00 0.81 58 1005.3
20260504182203 62 51 0.9 1.7 0.00 0.00 0.81 58 1005.3
20260504182103 62 52 0.9 1.7 0.00 0.00 0.81 58 1005.4
20260504182003 62 50 0.9 1.7 0.00 0.00 0.81 58 1005.3
20260504181903 62 50 0.0 1.7 0.00 0.00 0.81 57 1005.4
20260504181803 62 51 0.0 1.7 0.00 0.00 0.81 57 1005.3
20260504181703 62 55 0.0 0.9 0.00 0.00 0.81 57 1005.4
20260504181603 62 72 0.0 0.9 0.00 0.00 0.81 57 1005.3
20260504181519 63 92 0.0 0.9 0.00 0.00 0.81 57 1005.3
20260504181503 63 95 0.0 0.9 0.00 0.00 0.81 57 1005.4
20260504181403 63 99 0.0 0.9 0.00 0.00 0.81 56 1005.4
20260504181103 63 99 0.0 0.9 0.00 0.00 0.81 55 1005.3
20260504181003 64 99 0.0 0.9 0.00 0.00 0.81 55 1005.4
20260504180918 64 99 0.0 0.9 0.00 0.00 0.81 55 1005.4
20260504180903 64 100 0.0 0.9 0.00 0.00 0.81 55 1005.5
20260504180803 64 101 0.0 0.9 0.00 0.00 0.81 53 1005.3
20260504180618 64 106 0.0 0.9 0.00 0.00 0.81 53 1005.3
20260504180603 64 107 0.0 0.9 0.00 0.00 0.81 54 1005.1
20260504180503 64 114 0.0 1.7 0.00 0.00 0.81 53 1005.1
20260504180303 64 118 0.0 1.7 0.00 0.00 0.81 53 1005.1
20260504180203 65 119 0.0 1.7 0.00 0.00 0.81 53 1005.3
20260504180119 65 119 0.0 1.7 0.00 0.00 0.81 53 1005.3
20260504180103 65 120 0.0 1.7 0.00 0.00 0.81 53 1005.4
20260504180003 65 121 0.0 1.7 0.00 0.00 0.81 53 1005.5
20260504175803 65 125 0.0 1.7 0.00 0.00 0.81 52 1005.4
20260504175703 66 127 0.0 1.7 0.00 0.00 0.81 51 1005.1
20260504175616 66 129 0.0 1.7 0.00 0.00 0.81 49 1005.1
20260504175603 66 130 0.0 1.7 0.00 0.00 0.81 49 1005.5
20260504175503 66 131 0.0 1.7 0.00 0.00 0.81 48 1005.1
20260504175304 67 136 0.0 1.7 0.00 0.00 0.81 47 1005.4
20260504175203 67 139 0.9 1.7 0.00 0.00 0.81 47 1005.3
20260504175103 67 141 0.9 1.7 0.00 0.00 0.81 46 1005.4
20260504175020 67 145 0.9 1.7 0.00 0.00 0.81 46 1005.4
20260504175003 67 145 0.9 1.7 0.00 0.00 0.81 46 1005.1
20260504174903 68 146 0.9 1.7 0.00 0.00 0.81 46 1005.1
20260504174703 68 157 0.9 1.7 0.00 0.00 0.81 45 1005.3
20260504174603 68 164 0.9 2.6 0.00 0.00 0.81 45 1005.4
20260504174503 68 171 0.9 2.6 0.00 0.00 0.81 44 1005.3
20260504174403 68 177 0.9 2.6 0.00 0.00 0.81 44 1005.5
20260504174303 69 186 0.9 2.6 0.00 0.00 0.81 43 1005.3
20260504174216 69 190 0.9 2.6 0.00 0.00 0.81 44 1005.3
20260504174203 69 191 0.9 2.6 0.00 0.00 0.81 44 1005.4
20260504174103 69 198 0.9 2.6 0.00 0.00 0.81 44 1005.4
20260504173903 70 207 0.9 2.6 0.00 0.00 0.81 42 1005.4
20260504173803 70 209 1.7 2.6 0.00 0.00 0.81 42 1005.5
20260504173703 70 210 1.7 2.6 0.00 0.00 0.81 42 1005.5
20260504173603 70 211 1.7 2.6 0.00 0.00 0.81 42 1005.5
20260504173403 71 204 1.7 2.6 0.00 0.00 0.81 40 1005.5
20260504173316 71 200 1.7 2.6 0.00 0.00 0.81 40 1005.5
20260504173303 71 200 1.7 3.5 0.00 0.00 0.81 41 1005.5
20260504173003 72 196 1.7 3.5 0.00 0.00 0.81 40 1005.5
20260504172903 72 196 1.7 3.5 0.00 0.00 0.81 40 1005.6
20260504172803 72 197 1.7 3.5 0.00 0.00 0.81 39 1005.6
20260504172703 72 198 1.7 3.5 0.00 0.00 0.81 39 1005.6
20260504172603 72 199 1.7 3.5 0.00 0.00 0.81 39 1005.5
20260504172503 72 207 1.7 7.0 0.00 0.00 0.81 38 1005.5
20260504172403 73 207 1.7 7.0 0.00 0.00 0.81 39 1005.6
20260504172318 73 210 1.7 7.0 0.00 0.00 0.81 38 1005.6
20260504172304 73 210 2.6 7.0 0.00 0.00 0.81 38 1005.5
20260504172203 73 207 2.6 7.0 0.00 0.00 0.81 38 1005.5
20260504172003 73 208 2.6 7.0 0.00 0.00 0.81 37 1005.5
20260504171903 73 206 2.6 7.0 0.00 0.00 0.81 38 1005.4
20260504171803 74 205 2.6 7.0 0.00 0.00 0.81 37 1005.6
20260504171703 74 206 2.6 7.0 0.00 0.00 0.81 37 1005.5
20260504171603 74 206 2.6 7.0 0.00 0.00 0.81 37 1005.5
20260504171503 74 205 2.6 7.0 0.00 0.00 0.81 35 1005.5
20260504171403 74 206 3.5 7.0 0.00 0.00 0.81 38 1005.5
20260504171304 74 203 2.6 7.0 0.00 0.00 0.81 36 1005.4
20260504171203 74 208 2.6 7.0 0.00 0.00 0.81 37 1005.5
20260504171103 74 210 2.6 7.0 0.00 0.00 0.81 37 1005.5
20260504171003 74 207 2.6 7.0 0.00 0.00 0.81 35 1005.5
20260504170903 75 207 2.6 7.0 0.00 0.00 0.81 35 1005.5
20260504170803 75 209 2.6 7.0 0.00 0.00 0.81 35 1005.5
20260504170703 75 210 2.6 7.0 0.00 0.00 0.81 35 1005.3
20260504170603 75 208 3.5 7.0 0.00 0.00 0.81 33 1005.5
20260504170503 75 205 2.6 7.0 0.00 0.00 0.81 32 1005.4
20260504170403 75 205 3.5 7.0 0.00 0.00 0.81 32 1005.3
20260504170303 75 207 2.6 7.0 0.00 0.00 0.81 32 1005.5
20260504170203 75 205 3.5 7.0 0.00 0.00 0.81 32 1005.5
20260504160403 77 194 4.3 11.3 0.00 0.00 0.81 30 1005.5
20260504160303 77 193 4.3 11.3 0.00 0.00 0.81 30 1005.5
20260504160203 77 193 4.3 11.3 0.00 0.00 0.81 30 1005.5
20260504160103 77 200 5.2 11.3 0.00 0.00 0.81 32 1005.6
20260504150903 77 174 6.1 13.0 0.00 0.00 0.81 30 1005.7